sat.trackr.live / text

‹ back to catalog

STARLINK-30041

NORAD 57613 · 2023-119M

PAYLOAD ACTIVE UNKNOWN

§ Identity

Operator
Country
US
Launch date
2023-08-11
Launch site
AFETR
Launch vehicle
Mass (kg)
RCS (m²)

Purposes: comms

External: N2YO · Heavens-Above · Gunter

§ Orbital elements

Epoch: 2026-05-25T00:37:14.730816Z

Period
94.27 min
Inclination
43.0034°
Eccentricity
0.0001775
Mean motion
15.27575091 rev/d
Perigee alt
481.8 km
Apogee alt
484.3 km
Semi-major
6,861.2 km
B*
4.7266e-5
RAAN
10.2435°
Arg perigee
266.9880°
Mean anomaly
93.0768°
Rev number
15,476

§ Raw data

STARLINK-300411 57613U 23119M   26145.02586494  .00001038  00000+0  47266-4 0  99942 57613  43.0034  10.2435 0001775 266.9880  93.0768 15.27575091154760

JSON: /api/v1/satellites/57613 · /tle

For live sub-satellite position, see the globe view (requires WebGL).

§ Visibility from observer

Set your observer location to see the next 7 days of passes ≥ 10°. The values pass through the URL so the page stays shareable.

No JS? Fill the form by hand. The geolocation button needs JavaScript.